Regional Weather Roundup
Issued by NWS Midland/Odessa, TX

Current Version | Previous Version | Text Only | Print | Product List | Glossary On
Versions: 1 2 3 4 5 6 7 8 9 10 11 12 13 14 15 16 17 18 19 20 21 22 23 24 25 26 27 28 29 30 31 32 33 34 35 36 37 38 39 40 41 42 43 44 45 46 47 48 49 50
000
ASUS44 KMAF 081410
RWRMAF
MIDLAND AREA WEATHER ROUNDUP
NATIONAL WEATHER SERVICE MIDLAND TX
900 AM CDT SAT MAY 08 2021

...IN SOUTHWEST TEXAS AND SOUTHEAST NEW MEXICO...

CITY           SKY/WX    TMP DP  RH WIND       PRES   REMARKS
ALPINE         SUNNY     74  49  41 SW18      30.04S
ANDREWS        FAIR      69  47  46 S12       29.89R
ARTESIA        SUNNY     75  50  41 SW28      29.89R
BIG SPRING     SUNNY     68  56  66 S23       29.87R
CARLSBAD       SUNNY     74  49  41 VRB5      29.85R
DRYDEN           N/A     69  59  70 E12       29.93R
FORT STOCKTON  MOSUNNY   71  47  42 CALM      29.89R
GUAD PASS      SUNNY     65  46  50 SW25      30.02R
HOBBS          SUNNY     68  43  40 S13       29.89R
LAMESA         NOT AVBL
MARFA          SUNNY     64  55  72 CALM      30.06R
MIDLAND AIRPK  MOSUNNY   69  53  57 S14       29.88S
MIDLAND INTL   MOSUNNY   68  53  58 S14       29.88R
ODESSA         MOSUNNY   70  50  49 S14       29.89R
PECOS          MOSUNNY   66  46  47 CALM      29.88R
PRESIDIO       FAIR      72  56  55 CALM      29.96R
SEMINOLE       SUNNY     69  45  41 SW10      29.92R
SNYDER         SUNNY     66  55  68 S17G25    29.86S
WINK           SUNNY     70  47  43 SE10      29.87R
$$
...OTHER STATIONS IN TEXAS...

CITY           SKY/WX    TMP DP  RH WIND       PRES   REMARKS
ABILENE        MOSUNNY   69  60  73 S20G31    29.85F
AMARILLO       SUNNY     64  49  57 SW14G24   29.79S
AUSTIN         CLOUDY    71  69  93 S13       29.96F
BROWNSVILLE    MOSUNNY   81  72  74 SE15      29.96R
CORPUS CHRISTI PTSUNNY   79  74  84 SE16      29.95S
DALLAS FTW     PTSUNNY   71  62  73 S22G32    29.88S
DEL RIO        CLOUDY    74  65  73 SE14G21   29.90S
EL PASO        MOSUNNY   74  19  12 SW12      29.95R
HOUSTON INT    PTSUNNY   74  67  78 S8        30.02S
LUBBOCK        MOSUNNY   69  46  43 SW16      29.84S
SAN ANGELO     SUNNY     71  59  65 S15G26    29.89S
SAN ANTONIO    CLOUDY    73  68  84 S10       29.98R
WACO           CLOUDY    72  65  78 S18G25    29.94F
WICHITA FALLS  MOSUNNY   66  55  67 SE17      29.76F
$$
...OTHER LOCATIONS IN NEW MEXICO...

CITY           SKY/WX    TMP DP  RH WIND       PRES   REMARKS
ALAMOGORDO     SUNNY     70  43  37 S13       29.95S
ALBUQUERQUE    CLOUDY    60  21  22 SW5       29.99R
CANNON AFB     SUNNY     67  49  53 W23       29.87S
CLOVIS         SUNNY     68  50  52 SW18      29.86S
HOLLOMAN AFB   SUNNY     69  42  37 S10       29.96R
ROSWELL        SUNNY     76  48  37 SW25G33   29.84F
RUIDOSO        SUNNY     59  30  33 SE3       30.07R
SANTA FE       MOSUNNY   56  27  32 W5        30.00R
TRUTH OR CONSE MOSUNNY   63  17  17 W5        29.98R
TUCUMCARI      SUNNY     64  52  64 W13       29.81R
$$



USA.gov is the U.S. government's official web portal to all federal, state and local government web resources and services.